| time (UTC) | temp C | wind direction | speed KPH | gust KPH | rain 1hr cm | rain 24hr cm | rain mn cm | humidity % | barometer mb |
| 20260508130308 | 10 | 194 | 4.8 | 6.4 | 0.00 | 0.00 | 0.00 | 75 | 998.3 |
| 20260508125126 | 8 | 182 | 3.2 | 4.8 | 0.00 | 0.00 | 0.00 | 81 | 998.6 |
| 20260508123936 | 8 | 201 | 1.6 | 3.2 | 0.00 | 0.00 | 0.00 | 86 | 998.6 |
| 20260508123350 | 7 | 187 | 3.2 | 3.2 | 0.00 | 0.00 | 0.00 | 88 | 998.6 |
| 20260508122731 | 7 | 212 | 3.2 | 3.2 | 0.00 | 0.00 | 0.00 | 91 | 998.6 |
| 20260508122120 | 6 | 224 | 1.6 | 3.2 | 0.00 | 0.00 | 0.00 | 92 | 998.3 |
| 20260508121537 | 6 | 190 | 1.6 | 4.8 | 0.00 | 0.00 | 0.00 | 93 | 998.3 |
| 20260508120920 | 5 | 192 | 3.2 | 3.2 | 0.00 | 0.00 | 0.00 | 95 | 998.3 |
| 20260508115710 | 5 | 218 | 3.2 | 4.8 | 0.00 | 0.00 | 0.00 | 98 | 998.3 |
| 20260508115148 | 4 | 206 | 3.2 | 3.2 | 0.00 | 0.00 | 0.00 | 99 | 998.3 |
| 20260508114519 | 4 | 210 | 3.2 | 3.2 | 0.00 | 0.00 | 0.00 | 99 | 998.3 |
| 20260508113930 | 3 | 205 | 1.6 | 3.2 | 0.00 | 0.00 | 0.00 | 99 | 998.3 |
| 20260508113316 | 3 | 222 | 1.6 | 3.2 | 0.00 | 0.00 | 0.00 | 99 | 998.3 |
| 20260508112719 | 3 | 218 | 1.6 | 3.2 | 0.00 | 0.00 | 0.00 | 99 | 998.3 |
| 20260508112143 | 3 | 217 | 1.6 | 3.2 | 0.00 | 0.00 | 0.00 | 99 | 998.3 |
| 20260508111542 | 3 | 218 | 1.6 | 3.2 | 0.00 | 0.00 | 0.00 | 99 | 998.3 |
| 20260508110922 | 3 | 225 | 0.0 | 1.6 | 0.00 | 0.00 | 0.00 | 99 | 998.3 |
| 20260508110326 | 3 | 216 | 0.0 | 3.2 | 0.00 | 0.00 | 0.00 | 99 | 997.9 |
| 20260508105142 | 2 | 228 | 0.0 | 1.6 | 0.00 | 0.00 | 0.00 | 99 | 997.9 |
| 20260508103936 | 2 | 221 | 1.6 | 3.2 | 0.00 | 0.00 | 0.00 | 99 | 997.9 |
| 20260508103338 | 2 | 212 | 1.6 | 1.6 | 0.00 | 0.00 | 0.00 | 99 | 997.9 |
| 20260508102715 | 2 | 236 | 0.0 | 0.0 | 0.00 | 0.00 | 0.00 | 99 | 997.9 |
| 20260508102115 | 2 | 229 | 1.6 | 1.6 | 0.00 | 0.00 | 0.00 | 99 | 997.6 |
| 20260508101512 | 2 | 230 | 0.0 | 1.6 | 0.00 | 0.00 | 0.00 | 99 | 997.6 |
| 20260508100938 | 2 | 218 | 1.6 | 1.6 | 0.00 | 0.00 | 0.00 | 99 | 997.6 |
| 20260508100331 | 2 | 223 | 0.0 | 1.6 | 0.00 | 0.00 | 0.00 | 99 | 997.6 |
| 20260508095748 | 2 | 225 | 0.0 | 1.6 | 0.00 | 0.00 | 0.00 | 99 | 997.6 |
| 20260508095130 | 2 | 223 | 0.0 | 1.6 | 0.00 | 0.00 | 0.00 | 99 | 997.6 |
| 20260508094522 | 2 | 225 | 0.0 | 0.0 | 0.00 | 0.00 | 0.00 | 99 | 997.6 |
| 20260508093943 | 3 | 219 | 0.0 | 1.6 | 0.00 | 0.00 | 0.00 | 99 | 997.6 |
| 20260508092722 | 3 | 229 | 0.0 | 1.6 | 0.00 | 0.00 | 0.00 | 99 | 997.2 |
| 20260508092142 | 2 | 220 | 0.0 | 1.6 | 0.00 | 0.00 | 0.00 | 99 | 997.6 |
| 20260508091528 | 2 | 223 | 0.0 | 1.6 | 0.00 | 0.00 | 0.00 | 99 | 997.2 |
| 20260508090932 | 2 | 222 | 0.0 | 1.6 | 0.00 | 0.00 | 0.00 | 99 | 997.2 |
| 20260508085139 | 3 | 227 | 0.0 | 0.0 | 0.00 | 0.00 | 0.00 | 99 | 997.2 |
| 20260508084547 | 3 | 221 | 1.6 | 1.6 | 0.00 | 0.00 | 0.00 | 99 | 997.2 |
| 20260508083912 | 3 | 229 | 0.0 | 0.0 | 0.00 | 0.00 | 0.00 | 99 | 997.2 |
| 20260508083313 | 2 | 215 | 1.6 | 3.2 | 0.00 | 0.00 | 0.00 | 99 | 997.2 |
| 20260508082735 | 2 | 224 | 1.6 | 1.6 | 0.00 | 0.00 | 0.00 | 99 | 997.2 |
| 20260508082150 | 2 | 230 | 0.0 | 1.6 | 0.00 | 0.00 | 0.00 | 99 | 997.2 |
| 20260508081537 | 2 | 226 | 0.0 | 1.6 | 0.00 | 0.00 | 0.00 | 99 | 997.2 |
| 20260508080328 | 3 | 235 | 0.0 | 0.0 | 0.00 | 0.00 | 0.00 | 99 | 997.2 |
| 20260508075731 | 3 | 217 | 1.6 | 1.6 | 0.00 | 0.00 | 0.00 | 99 | 997.2 |
| 20260508075120 | 2 | 224 | 0.0 | 1.6 | 0.00 | 0.00 | 0.00 | 99 | 997.2 |
| 20260508074529 | 3 | 224 | 0.0 | 1.6 | 0.00 | 0.00 | 0.00 | 99 | 997.2 |
| 20260508073327 | 3 | 222 | 0.0 | 1.6 | 0.00 | 0.00 | 0.00 | 99 | 997.2 |
| 20260508072732 | 3 | 230 | 0.0 | 0.0 | 0.00 | 0.00 | 0.00 | 99 | 997.2 |
| 20260508072115 | 3 | 223 | 1.6 | 1.6 | 0.00 | 0.00 | 0.00 | 99 | 997.2 |
| 20260508071537 | 3 | 220 | 0.0 | 1.6 | 0.00 | 0.00 | 0.00 | 99 | 996.9 |
| 20260508070950 | 3 | 230 | 0.0 | 0.0 | 0.00 | 0.00 | 0.00 | 99 | 997.2 |
| 20260508070338 | 3 | 228 | 0.0 | 0.0 | 0.00 | 0.00 | 0.00 | 99 | 997.2 |
| 20260508065738 | 3 | 229 | 0.0 | 1.6 | 0.00 | 0.00 | 0.00 | 99 | 997.2 |
| 20260508065133 | 3 | 221 | 1.6 | 1.6 | 0.00 | 0.00 | 0.00 | 99 | 997.2 |
| 20260508064520 | 3 | 221 | 1.6 | 1.6 | 0.00 | 0.00 | 0.00 | 99 | 997.2 |
| 20260508063925 | 3 | 221 | 0.0 | 3.2 | 0.00 | 0.00 | 0.00 | 99 | 997.2 |
| 20260508063318 | 3 | 227 | 0.0 | 1.6 | 0.00 | 0.00 | 0.00 | 99 | 997.2 |
| 20260508062742 | 3 | 228 | 0.0 | 0.0 | 0.00 | 0.00 | 0.00 | 99 | 997.2 |
| 20260508062146 | 3 | 227 | 0.0 | 0.0 | 0.00 | 0.00 | 0.00 | 99 | 997.2 |
| 20260508061530 | 3 | 217 | 1.6 | 1.6 | 0.00 | 0.00 | 0.00 | 99 | 997.2 |
| 20260508060909 | 3 | 228 | 0.0 | 1.6 | 0.00 | 0.00 | 0.00 | 99 | 997.2 |
| 20260508060341 | 3 | 228 | 1.6 | 1.6 | 0.00 | 0.00 | 0.00 | 98 | 997.2 |
| 20260508055751 | 3 | 230 | 0.0 | 0.0 | 0.00 | 0.00 | 0.00 | 98 | 997.2 |
| 20260508055141 | 3 | 219 | 1.6 | 1.6 | 0.00 | 0.00 | 0.00 | 98 | 997.2 |
| 20260508054544 | 3 | 227 | 0.0 | 1.6 | 0.00 | 0.00 | 0.00 | 98 | 997.6 |
| 20260508052737 | 4 | 223 | 0.0 | 1.6 | 0.00 | 0.00 | 0.00 | 97 | 997.6 |
| 20260508052132 | 4 | 225 | 0.0 | 1.6 | 0.00 | 0.00 | 0.00 | 97 | 997.2 |
| 20260508051526 | 4 | 223 | 1.6 | 1.6 | 0.00 | 0.00 | 0.00 | 97 | 997.6 |
| 20260508050945 | 4 | 223 | 1.6 | 1.6 | 0.00 | 0.00 | 0.00 | 96 | 997.2 |
| 20260508050309 | 4 | 228 | 0.0 | 1.6 | 0.00 | 0.00 | 0.00 | 96 | 997.6 |
| 20260508045724 | 5 | 220 | 1.6 | 1.6 | 0.00 | 0.00 | 0.00 | 96 | 997.2 |
| 20260508045127 | 5 | 221 | 1.6 | 1.6 | 0.00 | 0.00 | 0.00 | 95 | 997.2 |
| 20260508044542 | 5 | 229 | 0.0 | 0.0 | 0.00 | 0.00 | 0.00 | 95 | 997.2 |
| 20260508043936 | 5 | 228 | 0.0 | 1.6 | 0.00 | 0.00 | 0.00 | 94 | 997.2 |
| 20260508043347 | 5 | 219 | 1.6 | 1.6 | 0.00 | 0.00 | 0.00 | 94 | 997.2 |
| 20260508042723 | 5 | 230 | 0.0 | 0.0 | 0.00 | 0.00 | 0.00 | 94 | 997.2 |
| 20260508042141 | 5 | 230 | 0.0 | 1.6 | 0.00 | 0.00 | 0.00 | 93 | 997.2 |
| 20260508041532 | 5 | 227 | 0.0 | 1.6 | 0.00 | 0.00 | 0.00 | 92 | 997.6 |
| 20260508040318 | 5 | 222 | 0.0 | 1.6 | 0.00 | 0.00 | 0.00 | 92 | 997.2 |
| 20260508035120 | 6 | 228 | 0.0 | 1.6 | 0.00 | 0.00 | 0.00 | 90 | 997.2 |
| 20260508034526 | 6 | 214 | 1.6 | 3.2 | 0.00 | 0.00 | 0.00 | 90 | 997.2 |
| 20260508033916 | 6 | 213 | 3.2 | 3.2 | 0.00 | 0.00 | 0.00 | 90 | 997.2 |
| 20260508033321 | 6 | 224 | 0.0 | 1.6 | 0.00 | 0.00 | 0.00 | 90 | 997.2 |
| 20260508032734 | 6 | 224 | 0.0 | 1.6 | 0.00 | 0.00 | 0.00 | 88 | 997.2 |
| 20260508032146 | 6 | 224 | 1.6 | 1.6 | 0.00 | 0.00 | 0.00 | 88 | 997.2 |
| 20260508031526 | 6 | 229 | 0.0 | 0.0 | 0.00 | 0.00 | 0.00 | 89 | 997.2 |
| 20260508030931 | 6 | 221 | 1.6 | 1.6 | 0.00 | 0.00 | 0.00 | 88 | 997.2 |
| 20260508030311 | 6 | 223 | 1.6 | 1.6 | 0.00 | 0.00 | 0.00 | 88 | 997.2 |
| 20260508025719 | 7 | 224 | 1.6 | 1.6 | 0.00 | 0.00 | 0.00 | 87 | 997.2 |
| 20260508025114 | 7 | 232 | 0.0 | 1.6 | 0.00 | 0.00 | 0.00 | 86 | 997.2 |
| 20260508024525 | 7 | 229 | 0.0 | 1.6 | 0.00 | 0.00 | 0.00 | 85 | 996.9 |
| 20260508023946 | 7 | 229 | 0.0 | 1.6 | 0.00 | 0.00 | 0.00 | 84 | 996.9 |
| 20260508023341 | 7 | 224 | 0.0 | 1.6 | 0.00 | 0.00 | 0.00 | 83 | 996.9 |
| 20260508022723 | 7 | 224 | 0.0 | 1.6 | 0.00 | 0.00 | 0.00 | 83 | 996.6 |
| 20260508021515 | 8 | 229 | 0.0 | 1.6 | 0.00 | 0.00 | 0.00 | 81 | 996.6 |
| 20260508020945 | 8 | 222 | 1.6 | 1.6 | 0.00 | 0.00 | 0.00 | 81 | 996.6 |
| 20260508020349 | 8 | 226 | 0.0 | 1.6 | 0.00 | 0.00 | 0.00 | 80 | 996.2 |
| 20260508015738 | 8 | 224 | 1.6 | 1.6 | 0.00 | 0.00 | 0.00 | 78 | 996.2 |
| 20260508015145 | 8 | 222 | 1.6 | 1.6 | 0.00 | 0.00 | 0.00 | 78 | 996.2 |
| 20260508014517 | 9 | 229 | 0.0 | 0.0 | 0.00 | 0.00 | 0.00 | 78 | 996.2 |
| 20260508012725 | 10 | 232 | 0.0 | 0.0 | 0.00 | 0.00 | 0.00 | 75 | 996.2 |
| 20260508011528 | 10 | 234 | 0.0 | 0.0 | 0.00 | 0.00 | 0.00 | 74 | 995.9 |
| 20260508010935 | 11 | 233 | 0.0 | 1.6 | 0.00 | 0.00 | 0.00 | 72 | 995.5 |
| 20260508010349 | 11 | 235 | 0.0 | 1.6 | 0.00 | 0.00 | 0.00 | 70 | 995.5 |
| 20260508005736 | 11 | 237 | 0.0 | 1.6 | 0.00 | 0.00 | 0.00 | 67 | 995.5 |
| 20260508003908 | 13 | 243 | 1.6 | 3.2 | 0.00 | 0.00 | 0.00 | 52 | 995.5 |
| 20260508003340 | 13 | 236 | 1.6 | 1.6 | 0.00 | 0.00 | 0.00 | 59 | 995.2 |
| 20260508002734 | 14 | 246 | 1.6 | 3.2 | 0.00 | 0.00 | 0.00 | 58 | 995.5 |
| 20260508002110 | 14 | 241 | 1.6 | 1.6 | 0.00 | 0.00 | 0.00 | 47 | 995.2 |
| 20260508001532 | 15 | 238 | 1.6 | 3.2 | 0.00 | 0.00 | 0.00 | 42 | 995.2 |
| 20260508000949 | 15 | 239 | 1.6 | 3.2 | 0.00 | 0.00 | 0.00 | 44 | 994.9 |
| 20260508000335 | 15 | 238 | 1.6 | 4.8 | 0.00 | 0.00 | 0.00 | 45 | 995.2 |
| 20260507235747 | 15 | 247 | 4.8 | 6.4 | 0.00 | 0.00 | 0.00 | 43 | 995.2 |
| 20260507235119 | 15 | 239 | 4.8 | 6.4 | 0.00 | 0.00 | 0.00 | 41 | 994.9 |
| 20260507234551 | 15 | 240 | 3.2 | 4.8 | 0.00 | 0.00 | 0.00 | 40 | 994.5 |
| 20260507233938 | 16 | 228 | 3.2 | 4.8 | 0.00 | 0.00 | 0.00 | 38 | 994.9 |
| 20260507233347 | 16 | 254 | 3.2 | 6.4 | 0.00 | 0.00 | 0.00 | 39 | 994.5 |
| 20260507231535 | 16 | 273 | 11.3 | 17.7 | 0.00 | 0.00 | 0.00 | 37 | 994.5 |
| 20260507225744 | 16 | 245 | 3.2 | 9.7 | 0.00 | 0.00 | 0.00 | 39 | 994.9 |
| 20260507225120 | 16 | 273 | 6.4 | 14.5 | 0.00 | 0.00 | 0.00 | 37 | 994.5 |
| 20260507224527 | 16 | 236 | 4.8 | 9.7 | 0.00 | 0.00 | 0.00 | 39 | 994.5 |
| 20260507223918 | 16 | 248 | 4.8 | 9.7 | 0.00 | 0.00 | 0.00 | 37 | 994.5 |
| 20260507223338 | 16 | 237 | 8.0 | 9.7 | 0.00 | 0.00 | 0.00 | 40 | 994.5 |
| 20260507222719 | 16 | 242 | 4.8 | 11.3 | 0.00 | 0.00 | 0.00 | 39 | 994.5 |
| 20260507221516 | 16 | 256 | 3.2 | 6.4 | 0.00 | 0.00 | 0.00 | 42 | 994.5 |
| 20260507220312 | 16 | 243 | 1.6 | 3.2 | 0.00 | 0.00 | 0.00 | 41 | 994.2 |
| 20260507215738 | 16 | 240 | 4.8 | 4.8 | 0.00 | 0.00 | 0.00 | 44 | 993.9 |
| 20260507215144 | 16 | 271 | 4.8 | 11.3 | 0.00 | 0.00 | 0.00 | 42 | 994.2 |
| 20260507213944 | 16 | 235 | 3.2 | 6.4 | 0.00 | 0.00 | 0.00 | 42 | 993.9 |
| 20260507212737 | 17 | 243 | 3.2 | 4.8 | 0.00 | 0.00 | 0.00 | 44 | 993.9 |
| 20260507211532 | 16 | 246 | 3.2 | 4.8 | 0.00 | 0.00 | 0.00 | 43 | 993.9 |
| 20260507210928 | 17 | 259 | 4.8 | 4.8 | 0.00 | 0.00 | 0.00 | 42 | 993.9 |
| 20260507210344 | 16 | 247 | 4.8 | 4.8 | 0.00 | 0.00 | 0.00 | 43 | 993.5 |
| 20260507204547 | 16 | 229 | 3.2 | 6.4 | 0.00 | 0.00 | 0.00 | 46 | 993.9 |
| 20260507202737 | 17 | 269 | 8.0 | 9.7 | 0.00 | 0.00 | 0.00 | 45 | 993.5 |
| 20260507202152 | 16 | 249 | 1.6 | 11.3 | 0.00 | 0.00 | 0.00 | 45 | 993.5 |
| 20260507201538 | 17 | 200 | 9.7 | 14.5 | 0.00 | 0.00 | 0.00 | 41 | 993.5 |
| 20260507200938 | 17 | 251 | 6.4 | 9.7 | 0.00 | 0.00 | 0.00 | 44 | 993.9 |
| 20260507195752 | 17 | 245 | 3.2 | 3.2 | 0.00 | 0.00 | 0.00 | 44 | 993.5 |
| 20260507195151 | 17 | 251 | 9.7 | 12.9 | 0.00 | 0.00 | 0.00 | 45 | 993.9 |
| 20260507194514 | 17 | 258 | 3.2 | 6.4 | 0.00 | 0.00 | 0.00 | 42 | 993.5 |
| 20260507193951 | 17 | 248 | 3.2 | 9.7 | 0.00 | 0.00 | 0.00 | 43 | 993.5 |
| 20260507192732 | 17 | 230 | 4.8 | 4.8 | 0.00 | 0.00 | 0.00 | 44 | 993.9 |
| 20260507192146 | 17 | 226 | 3.2 | 6.4 | 0.00 | 0.00 | 0.00 | 49 | 993.9 |
| 20260507191535 | 16 | 238 | 3.2 | 3.2 | 0.00 | 0.00 | 0.00 | 47 | 994.2 |
| 20260507190936 | 16 | 252 | 3.2 | 3.2 | 0.00 | 0.00 | 0.00 | 47 | 994.2 |
| 20260507185724 | 16 | 194 | 6.4 | 11.3 | 0.00 | 0.00 | 0.00 | 48 | 994.5 |
| 20260507185150 | 16 | 234 | 1.6 | 6.4 | 0.00 | 0.00 | 0.00 | 46 | 994.2 |
| 20260507184549 | 16 | 231 | 1.6 | 4.8 | 0.00 | 0.00 | 0.00 | 54 | 994.2 |
| 20260507183952 | 16 | 252 | 9.7 | 11.3 | 0.00 | 0.00 | 0.00 | 48 | 994.5 |
| 20260507183308 | 16 | 232 | 0.0 | 4.8 | 0.00 | 0.00 | 0.00 | 51 | 994.5 |
| 20260507182714 | 16 | 233 | 3.2 | 6.4 | 0.00 | 0.00 | 0.00 | 52 | 994.5 |
| 20260507182150 | 16 | 258 | 3.2 | 4.8 | 0.00 | 0.00 | 0.00 | 50 | 994.5 |
| 20260507181510 | 16 | 236 | 0.0 | 3.2 | 0.00 | 0.00 | 0.00 | 51 | 994.2 |
| 20260507180928 | 15 | 224 | 3.2 | 9.7 | 0.00 | 0.00 | 0.00 | 55 | 994.5 |
| 20260507180324 | 15 | 246 | 3.2 | 4.8 | 0.00 | 0.00 | 0.00 | 55 | 994.5 |
| 20260507174520 | 15 | 238 | 1.6 | 3.2 | 0.00 | 0.00 | 0.00 | 56 | 994.5 |
| 20260507173945 | 15 | 250 | 3.2 | 4.8 | 0.00 | 0.00 | 0.00 | 54 | 994.9 |
| 20260507172732 | 16 | 244 | 4.8 | 6.4 | 0.00 | 0.00 | 0.00 | 54 | 994.9 |
| 20260507172129 | 16 | 173 | 3.2 | 6.4 | 0.00 | 0.00 | 0.00 | 52 | 994.5 |
| 20260507170911 | 16 | 250 | 1.6 | 6.4 | 0.00 | 0.00 | 0.00 | 55 | 995.2 |
| 20260507170321 | 16 | 247 | 3.2 | 4.8 | 0.00 | 0.00 | 0.00 | 56 | 995.2 |
| 20260507165750 | 16 | 260 | 1.6 | 3.2 | 0.00 | 0.00 | 0.00 | 53 | 995.2 |
| 20260507165135 | 15 | 251 | 3.2 | 6.4 | 0.00 | 0.00 | 0.00 | 56 | 995.2 |
| 20260507163923 | 15 | 253 | 4.8 | 6.4 | 0.00 | 0.00 | 0.00 | 53 | 995.5 |
| 20260507162722 | 16 | 237 | 0.0 | 1.6 | 0.00 | 0.00 | 0.00 | 57 | 995.5 |
| 20260507162152 | 15 | 240 | 1.6 | 3.2 | 0.00 | 0.00 | 0.00 | 57 | 995.5 |
| 20260507161555 | 16 | 174 | 8.0 | 12.9 | 0.00 | 0.00 | 0.00 | 51 | 995.5 |
| 20260507160923 | 15 | 228 | 3.2 | 4.8 | 0.00 | 0.00 | 0.00 | 55 | 995.5 |
| 20260507160346 | 16 | 251 | 4.8 | 6.4 | 0.00 | 0.00 | 0.00 | 56 | 995.5 |
| 20260507155731 | 14 | 1 | 1.6 | 6.4 | 0.00 | 0.00 | 0.00 | 58 | 995.5 |
| 20260507155123 | 14 | 254 | 8.0 | 9.7 | 0.00 | 0.00 | 0.00 | 58 | 995.5 |
| 20260507154519 | 14 | 244 | 1.6 | 3.2 | 0.00 | 0.00 | 0.00 | 58 | 995.5 |
| 20260507153911 | 14 | 240 | 3.2 | 3.2 | 0.00 | 0.00 | 0.00 | 63 | 995.5 |
| 20260507153316 | 14 | 228 | 0.0 | 1.6 | 0.00 | 0.00 | 0.00 | 61 | 995.5 |
| 20260507152750 | 14 | 236 | 0.0 | 1.6 | 0.00 | 0.00 | 0.00 | 59 | 995.5 |
| 20260507151534 | 14 | 255 | 3.2 | 4.8 | 0.00 | 0.00 | 0.00 | 57 | 995.5 |
| 20260507150347 | 14 | 244 | 1.6 | 1.6 | 0.00 | 0.00 | 0.00 | 66 | 995.5 |
| 20260507145715 | 14 | 235 | 0.0 | 1.6 | 0.00 | 0.00 | 0.00 | 61 | 995.9 |
| 20260507145111 | 13 | 240 | 0.0 | 1.6 | 0.00 | 0.00 | 0.00 | 64 | 995.5 |
| 20260507144515 | 13 | 240 | 0.0 | 1.6 | 0.00 | 0.00 | 0.00 | 63 | 995.5 |
| 20260507143939 | 13 | 245 | 1.6 | 1.6 | 0.00 | 0.00 | 0.00 | 64 | 995.9 |
| 20260507143320 | 13 | 248 | 1.6 | 1.6 | 0.00 | 0.00 | 0.00 | 62 | 995.9 |
| 20260507142123 | 13 | 235 | 0.0 | 4.8 | 0.00 | 0.00 | 0.00 | 61 | 995.9 |
| 20260507141518 | 13 | 250 | 1.6 | 3.2 | 0.00 | 0.00 | 0.00 | 65 | 995.9 |
| 20260507140926 | 14 | 240 | 1.6 | 1.6 | 0.00 | 0.00 | 0.00 | 62 | 995.9 |
| 20260507140342 | 13 | 240 | 0.0 | 1.6 | 0.00 | 0.00 | 0.00 | 65 | 996.2 |
| 20260507135144 | 13 | 236 | 0.0 | 1.6 | 0.00 | 0.00 | 0.00 | 72 | 996.2 |
| 20260507134519 | 13 | 237 | 0.0 | 1.6 | 0.00 | 0.00 | 0.00 | 70 | 996.2 |
| 20260507133319 | 13 | 244 | 1.6 | 3.2 | 0.00 | 0.00 | 0.00 | 68 | 996.2 |
| 20260507132743 | 12 | 335 | 3.2 | 6.4 | 0.00 | 0.00 | 0.00 | 68 | 996.6 |
| 20260507132122 | 12 | 246 | 1.6 | 1.6 | 0.00 | 0.00 | 0.00 | 71 | 996.6 |